Home > Weather > Greeley > Past weeks

Flag for USA Past Weather in Greeley, Colorado, USA — Yesterday and Last 2 Weeks

Now
52 °F

Sunny.


Feels Like: 51 °F
Forecast: 45 / 64 °F
Wind: 3 mph from North

Location: Greeley / Weld

Current Time: May 26, 2016 at 8:35:19 AM

Latest Report: May 26, 2016 at 7:55 AM


Visibility: 10 mi

Pressure: 29.99 "Hg (25.27 "Hg at 1424m altitude)

Humidity: 77%

Dew Point: 45 °F

Location of GreeleyLocation

Past Weather in Greeley — Graph

°F

Greeley Temperature Yesterday

Maximum temperature yesterday: 75 °F (at 2:15 PM)
Minimum temperature yesterday: 43 °F (at 5:55 AM)
Average temperature yesterday: 60 °F

High & Low Weather Summary for the Past Weeks

 TemperatureHumidityPressure
High84 °F (May 21, 4:15 PM)100% (May 13, 5:35 AM)30.39 "Hg (May 13, 5:35 AM)
Low36 °F (May 12, 4:35 AM)19% (May 21, 4:35 PM)29.69 "Hg (May 22, 5:55 PM)
Average55 °F64%30.03 "Hg
* Reported May 11 7:15 AM — May 26 7:35 AM, Greeley, Weather by CustomWeather, © 2016

Note: Actual official high and low records may vary slightly from our data, if they occured in-between our weather recording intervals... More about our weather records

Advertising

Greeley Weather History for the Previous 24 Hours

Scroll right to see more
 ConditionsComfort  
Time TempWeatherWind HumidityBarometerVisibility
7:35 AM
Thu, May 26
50 °FCool.No wind76%30.00 "Hg10 mi
7:15 AM48 °FSunny.No wind82%30.00 "Hg10 mi
6:55 AM48 °FPassing clouds.No wind82%30.00 "Hg10 mi
6:35 AM46 °FScattered clouds.3 mph87%30.00 "Hg10 mi
6:15 AM46 °FPassing clouds.5 mph87%30.01 "Hg10 mi
5:55 AM46 °FPassing clouds.No wind76%30.01 "Hg10 mi
5:35 AM46 °FOvercast.No wind82%30.01 "Hg10 mi
5:15 AM46 °FPassing clouds.No wind87%30.01 "Hg10 mi
4:55 AM45 °FOvercast.No wind87%30.00 "Hg8 mi
4:35 AM43 °FPassing clouds.No wind81%30.00 "Hg10 mi
4:15 AM46 °FPassing clouds.No wind76%30.00 "Hg10 mi
3:55 AM46 °FClear.No wind82%30.00 "Hg10 mi
3:35 AM46 °FClear.No wind82%30.00 "Hg10 mi
3:15 AM45 °FClear.3 mph81%30.00 "Hg10 mi
2:55 AM45 °FClear.5 mph87%30.00 "Hg10 mi
2:35 AM46 °FClear.3 mph82%30.01 "Hg10 mi
2:15 AM48 °FClear.5 mph71%30.02 "Hg10 mi
1:55 AM48 °FClear.7 mph76%30.01 "Hg10 mi
1:35 AM48 °FClear.6 mph76%30.01 "Hg10 mi
1:15 AM48 °FClear.7 mph82%30.02 "Hg10 mi
12:55 AM48 °FClear.7 mph71%30.02 "Hg10 mi
12:35 AM48 °FClear.5 mph76%30.01 "Hg10 mi
11:55 PM
Wed, May 25
50 °FClear.No wind76%30.01 "Hg10 mi
11:35 PM52 °FClear.No wind72%30.02 "Hg10 mi
11:15 PM52 °FClear.3 mph72%30.02 "Hg10 mi
10:55 PM54 °FClear.9 mph63%30.01 "Hg10 mi
10:35 PM55 °FClear.8 mph63%30.01 "Hg10 mi
10:15 PM55 °FClear.7 mph59%29.99 "Hg10 mi
9:55 PM55 °FClear.6 mph63%29.98 "Hg10 mi
9:35 PM55 °FClear.9 mph63%29.97 "Hg10 mi
9:15 PM57 °FSunny.9 mph59%29.96 "Hg10 mi
8:55 PM59 °FSunny.9 mph55%29.96 "Hg10 mi
8:35 PM61 °FSunny.10 mph52%29.95 "Hg10 mi
8:15 PM63 °FSunny.14 mph49%29.94 "Hg10 mi
7:55 PM64 °FSunny.15 mph46%29.93 "Hg10 mi
7:35 PM68 °FSunny.7 mph40%29.92 "Hg10 mi
7:15 PM68 °FSunny.7 mph35%29.92 "Hg10 mi
6:55 PM72 °FSunny.9 mph31%29.91 "Hg10 mi
6:35 PM75 °FSunny.12 mph27%29.91 "Hg10 mi
6:15 PM75 °FSunny.9 mph27%29.91 "Hg10 mi
5:55 PM73 °FSunny.5 mph27%29.91 "Hg10 mi
5:35 PM73 °FSunny.9 mph27%29.92 "Hg10 mi
5:15 PM75 °FSunny.12 mph25%29.91 "Hg10 mi
4:55 PM75 °FSunny.12 mph25%29.91 "Hg10 mi
4:35 PM75 °FSunny.14 mph27%29.92 "Hg10 mi
4:15 PM75 °FSunny.9 mph24%29.92 "Hg10 mi
3:55 PM75 °FSunny.9 mph22%29.92 "Hg10 mi
3:35 PM75 °FSunny.8 mph24%29.93 "Hg10 mi
3:15 PM75 °FSunny.13 mph24%29.94 "Hg10 mi
2:55 PM75 °FSunny.12 mph22%29.94 "Hg10 mi
2:35 PM75 °FSunny.15 mph24%29.95 "Hg10 mi
2:15 PM75 °FSunny.22 mph27%29.95 "Hg10 mi
1:55 PM73 °FSunny.14 mph31%29.96 "Hg10 mi
1:35 PM73 °FPassing clouds.17 mph31%29.97 "Hg10 mi
1:15 PM72 °FSunny.13 mph36%29.97 "Hg10 mi
12:55 PM72 °FSunny.16 mph38%29.98 "Hg10 mi
12:35 PM72 °FSunny.10 mph41%29.98 "Hg10 mi
12:15 PM70 °FSunny.13 mph43%29.99 "Hg10 mi
11:55 AM70 °FSunny.12 mph43%30.00 "Hg10 mi
11:35 AM68 °FSunny.5 mph46%30.00 "Hg10 mi
11:15 AM66 °FSunny.7 mph49%30.01 "Hg10 mi
10:55 AM66 °FSunny.5 mph52%30.01 "Hg10 mi
10:35 AM66 °FSunny.6 mph52%30.02 "Hg10 mi
10:15 AM63 °FPassing clouds.8 mph56%30.02 "Hg10 mi
9:55 AM63 °FSunny.6 mph64%30.02 "Hg10 mi
9:35 AM63 °FSunny.6 mph59%30.02 "Hg10 mi
9:15 AM63 °FSunny.10 mph64%30.02 "Hg10 mi
8:55 AM61 °FSunny.3 mph59%30.02 "Hg10 mi
8:35 AM59 °FSunny.3 mph63%30.02 "Hg10 mi
8:15 AM54 °FSunny.No wind72%30.01 "Hg10 mi
Weather by CustomWeather, © 2016

See weather overviewHow to use our weather pages